{"data":{"norad_id":63325,"epoch":"2026-05-25T04:31:47.305344Z","epoch_age_seconds":52757,"freshness":"FRESH","line1":"1 63325U 25057U   26145.18874196  .00016595  00000+0  61106-3 0  9992","line2":"2 63325  43.0031 319.1102 0001651 269.4434  90.6228 15.27587897 67474","mean_motion":15.27587897,"eccentricity":0.0001651,"inclination_deg":43.0031,"raan_deg":319.1102,"arg_perigee_deg":269.4434,"mean_anomaly_deg":90.6228,"bstar":0.00061106,"rev_number":6747,"period_min":94.266261393402,"perigee_km":481.89267176215,"apogee_km":484.15822760303,"semimajor_km":6861.1624496826,"source":"CELESTRAK","updated_at":"2026-05-25T13:38:19.959790Z"}}